THOR AGENA B DEB, 511

Orbit data source: Space-Track

THOR AGENA B DEB, 511 is space debris in LEO originally from a launch on Sat, 29 Sep 1962 UTC launched from the Air Force Western Test Range (AFWTR). Debris objects in space refer to the collection of defunct objects orbiting the Earth. Examples of debris include non-operational satellites, rocket bodies, and fragments generated from explosions, collisions, or faulty payload assembly.

Loading next visibility...
Identifier
511, 1962-049D
Orbit
LEO
Last TLE update
23 hours ago
Origin
Manufacturer
Unknown
Mission
Spacecraft
Bus & Motor
Unknown
Mass
Unknown
Launch date (UTC)
1962-09-29 (63 years ago)
Launch vehicle
Unknown
Launch site
Air Force Western Test Range (AFWTR)
Object type
Payload
Rocket body
Debris
Shape & HBR
Unknown
Radar Cross Section
Small (<0.1 m²)

Expand to show TLE details & history

TLE from 23 hours ago
0 THOR AGENA B DEB
1 00511U 62049D   25181.78044992  .00000046  00000-0  43139-4 0  9992
2 00511  80.4265 180.4155 0031898 158.9040  15.0649 13.68512205131513
Epoch: 2025-06-30T18:43Z
TLE epoch observation values (Epoch: 2025-06-30T18:43:50.873Z)
Latitude
5.77462°
Longitude
159.39595°
Altitude
984.429 km
Speed
7.371 km/s
True Right ascension
23h 57m 46s
True Declination
5° 44' 29"
Sunlit
Object was in daylight at epoch
Visualization orbit readout
Latitude
-76.76758°
Longitude
-66.1217°
Altitude
1,045.191 km
Speed
7.322 km/s
Apparent Right ascension
16h 28m 16s
Apparent Declination
-70° 35' 42"
Sunlit
Object is in daylight
Visualization observer readout
Local Sidereal Time
05:42:53
Azimuth
168.481° S
Elevation
-57.85°
Doppler factor
1
Orbital elements
Apogee altitude
1,025.729 km
Perigee altitude
978.646 km
Semi-major axis
7,380.324 km
Eccentricity
0.00319
Inclination
80.4265°
RAAN
180.4155°
Arg. of periapsis
158.904°
True anomaly
Unknown
Mean anomaly
15.0649°
Eccentric anomaly
Unknown
Mean motion
3.42318 °/min
Orbital period
105.17 mins
BSTAR
0.000043139
Loading maneuver chart data...
Loading SW <> Apogee altitude chart data...
Loading historical data...
Loading historical data...
Loading historical data...
Loading historical data...
Loading historical data...
Loading historical data...
Loading historical data...
Other satellites on launch #49 in the year 1962 (1962-09-29 UTC)

THOR AGENA B DEB Visibility forecast

Observer location: undefined°, undefined°

Span
Click to sort rows by Start time (UTC) header in descending order
Start Az.
Max El. time (UTC)
Max El. Az.
Max El.
End time (UTC)
End Az.
10 mins2025-07-01 23:49:11.063Z150.802° SSE2025-07-01 23:54:11.063Z94.999° ESE29.287°2025-07-01 23:59:11.063Z32.981° NE
10 mins2025-07-02 01:36:11.063Z229.52° WSW2025-07-02 01:40:11.063Z278.545° WNW30.301°2025-07-02 01:46:11.063Z352.45° N
10 mins2025-07-02 10:50:11.063Z11.035° NNE2025-07-02 10:54:11.063Z63.53° ENE32.525°2025-07-02 11:00:11.063Z140.824° SSE
8 mins2025-07-02 12:37:11.063Z316.755° NNW2025-07-02 12:41:11.063Z262.659° W25.853°2025-07-02 12:45:11.063Z217.385° SW
|